Weather in Verona

Italy     45˚26′29″N   10˚58′24″E
temp.,
°C
wind,
m/s
gust,
m/s
humid.,
%
clouds,
%
prec.,
mm/h
press.,
hPa
HPBL,
m
17 january, sun
sun1701:00ne017492 0.0 101926
04:00ese1182100 0.0 101632
07:00e1179100 0.0 101686
10:00+1˚se127176 0.0 1015234
13:00+2˚s116486 0.0 1014414
16:00+1˚sse1167100 0.0 1015146
19:00nne0169100 0.0 101833
22:00nw1267100 0.0 102028
18 january, mon
mon1801:00wnw127483 0.0 102228
04:00w117316 0.0 102323
07:00−1˚nw017826 0.0 102536
10:00+1˚s116981 0.0 1025163
13:00+3˚sw226541 0.0 1024451
16:00+2˚sw12700 0.0 1024127
19:00nw11770 0.0 102621
22:00nw017371 0.0 102721
19 january, tue
tue1901:00w007585 0.0 102722
04:00−1˚nne007680 0.0 102637
07:00−1˚wnw007562 0.0 102629
10:00+1˚ssw117020 0.0 1026137
13:00+3˚wsw225952 0.0 1024420
16:00+2˚w226684 0.0 1022149
19:00+1˚nw117183 0.0 102441
22:00+1˚ene0173100 0.0 102332
20 january, wed
wed2001:00+1˚nne0074100 0.0 102435
04:00s127681 0.0 102240
07:00+1˚ene117486 0.0 102246
10:00+1˚se0172100 0.0 1022133
13:00+3˚ssw1173100 0.1 1021163
16:00+2˚ssw1183100 0.2 1019106
19:00+1˚ese1189100 0.6 102055
22:00+2˚ese009299 0.5 101827
21 january, thu
thu2101:00+2˚ne009290 0.5 101827
04:00+2˚n1192100 0.2 101536
07:00+2˚ese1191100 0.3 101426
10:00+4˚e0088100 0.1 101432
13:00+3˚wsw1191100 0.5 101255
16:00+3˚sw0094100 0.4 101231
19:00+4˚nw1195100 1.5 101225
22:00+4˚nnw0195100 0.5 101223